IK6ZNK-3 Weather Reports


time (UTC)temp
C
wind
direction
speed
KPH
gust
KPH
rain 1hr
cm
rain 24hr
cm
rain mn
cm
humidity
%
barometer
mb
20260504033006 16 135 4.8 12.9 0.00 0.00 0.00 54 1009.6
20260504032006 16 135 9.7 16.1 0.00 0.00 0.00 55 1009.5
20260504031007 16 143 6.4 14.5 0.00 0.00 0.00 54 1009.6
20260504030007 16 135 3.2 8.0 0.00 0.00 0.00 54 1009.7
20260504025007 16 135 1.6 6.4 0.00 0.00 0.00 54 1009.7
20260504024006 16 141 1.6 4.8 0.00 0.00 0.00 54 1009.9
20260504023006 16 168 0.0 4.8 0.00 0.00 0.00 53 1009.9
20260504022006 17 135 0.0 3.2 0.00 0.00 0.00 54 1009.9
20260504021006 17 135 1.6 6.4 0.00 0.00 0.00 53 1010.1
20260504020007 16 135 4.8 12.9 0.00 0.00 0.00 54 1010.0
20260504015007 16 135 6.4 12.9 0.00 0.00 0.00 54 1009.8
20260504014007 16 135 6.4 12.9 0.00 0.00 0.00 55 1009.7
20260504013006 16 135 6.4 9.7 0.00 0.00 0.00 55 1009.8
20260504012006 16 139 4.8 9.7 0.00 0.00 0.00 55 1009.7
20260504011006 16 145 3.2 8.0 0.00 0.00 0.00 56 1009.9
20260504010007 16 135 6.4 12.9 0.00 0.00 0.00 59 1009.8
20260504005007 16 135 6.4 12.9 0.00 0.00 0.00 59 1009.6
20260504004006 16 135 6.4 12.9 0.00 0.00 0.00 61 1009.8
20260504003007 16 135 8.0 12.9 0.00 0.00 0.00 60 1009.6
20260504002006 16 138 8.0 12.9 0.00 0.00 0.00 60 1009.8
20260504001006 16 135 6.4 11.3 0.00 0.00 0.00 60 1009.8
20260504000006 16 138 4.8 16.1 0.00 0.00 0.00 61 1009.9
20260503235006 16 119 1.6 6.4 0.00 0.00 0.00 60 1010.0
20260503234007 16 90 1.6 6.4 0.00 0.00 0.00 60 1010.0
20260503233007 16 158 1.6 12.9 0.00 0.00 0.00 60 1010.0
20260503232006 16 135 4.8 9.7 0.00 0.00 0.00 60 1009.9
20260503231006 17 135 4.8 6.4 0.00 0.00 0.00 58 1010.0
20260503230007 16 144 6.4 12.9 0.00 0.00 0.00 58 1009.9
20260503225006 17 153 6.4 11.3 0.00 0.00 0.00 59 1010.0
20260503224006 16 150 6.4 12.9 0.00 0.00 0.00 58 1010.2
20260503223007 16 170 9.7 17.7 0.00 0.00 0.00 59 1010.3
20260503222007 16 149 9.7 17.7 0.00 0.00 0.00 61 1010.1
20260503221006 16 186 8.0 19.3 0.00 0.00 0.00 61 1009.9
20260503220009 16 182 14.5 24.1 0.00 0.00 0.00 62 1009.8
20260503215006 16 168 14.5 24.1 0.00 0.00 0.00 63 1010.0
20260503214006 16 159 14.5 27.4 0.00 0.00 0.00 62 1009.9
20260503213007 16 156 12.9 24.1 0.00 0.00 0.00 62 1010.3
20260503212007 16 148 11.3 20.9 0.00 0.00 0.00 60 1010.2
20260503211006 16 142 9.7 19.3 0.00 0.00 0.00 58 1010.1
20260503210006 17 145 3.2 14.5 0.00 0.00 0.00 55 1010.3
20260503205006 17 90 0.0 4.8 0.00 0.00 0.00 51 1010.2
20260503204006 17 127 4.8 9.7 0.00 0.00 0.00 49 1010.2
20260503203006 16 135 8.0 12.9 0.00 0.00 0.00 55 1010.3
20260503202007 16 124 1.6 8.0 0.00 0.00 0.00 55 1010.2
20260503201006 17 97 0.0 3.2 0.00 0.00 0.00 54 1010.2
20260503200007 16 172 0.0 3.2 0.00 0.00 0.00 55 1010.2
20260503195006 16 181 0.0 3.2 0.00 0.00 0.00 55 1010.4
20260503194006 17 181 0.0 3.2 0.00 0.00 0.00 53 1010.2
20260503193006 17 175 1.6 6.4 0.00 0.00 0.00 53 1010.1
20260503192006 17 139 3.2 6.4 0.00 0.00 0.00 52 1010.0
20260503191006 17 163 3.2 6.4 0.00 0.00 0.00 51 1010.1
20260503190007 17 184 1.6 4.8 0.00 0.00 0.00 51 1010.0
20260503185007 17 222 1.6 4.8 0.00 0.00 0.00 51 1010.0
20260503184007 17 225 0.0 3.2 0.00 0.00 0.00 52 1010.0
20260503183007 17 225 1.6 4.8 0.00 0.00 0.00 52 1010.0
20260503182006 17 225 0.0 3.2 0.00 0.00 0.00 52 1009.9
20260503181006 17 253 1.6 3.2 0.00 0.00 0.00 53 1009.8
20260503180006 17 270 0.0 3.2 0.00 0.00 0.00 53 1009.8
20260503175007 17 270 0.0 3.2 0.00 0.00 0.00 54 1009.7
20260503174007 18 270 0.0 3.2 0.00 0.00 0.00 54 1009.7
20260503173007 18 293 1.6 6.4 0.00 0.00 0.00 53 1009.8
20260503172006 19 49 1.6 6.4 0.00 0.00 0.00 50 1009.5
20260503171006 19 84 1.6 6.4 0.00 0.00 0.00 48 1009.7
20260503151007 21 33 8.0 22.5 0.00 0.00 0.00 44 1009.9
20260503131009 22 50 4.8 17.7 0.00 0.00 0.00 41 1010.6
20260503081009 20 4 1.6 9.7 0.00 0.00 0.00 34 1012.3
20260503072008 19 13 1.6 8.0 0.00 0.00 0.00 44 1012.3
20260503071008 19 27 3.2 12.9 0.00 0.00 0.00 45 1012.2
20260503055006 16 135 6.4 11.3 0.00 0.00 0.00 40 1011.8
20260503054006 16 135 6.4 12.9 0.00 0.00 0.00 43 1011.9
20260503053006 15 135 8.0 14.5 0.00 0.00 0.00 42 1011.7
20260503052006 15 135 8.0 12.9 0.00 0.00 0.00 45 1011.9
20260503051006 15 135 8.0 14.5 0.00 0.00 0.00 43 1011.9
20260503050006 14 138 11.3 17.7 0.00 0.00 0.00 44 1011.8
20260503045007 14 135 9.7 16.1 0.00 0.00 0.00 46 1011.8
20260503044006 13 135 11.3 17.7 0.00 0.00 0.00 45 1011.7
20260503043007 13 135 12.9 22.5 0.00 0.00 0.00 47 1011.6
20260503042006 12 138 12.9 22.5 0.00 0.00 0.00 49 1011.7
20260503041006 13 135 11.3 20.9 0.00 0.00 0.00 49 1011.8
20260503040006 13 138 11.3 17.7 0.00 0.00 0.00 46 1011.5
20260503035006 13 138 12.9 19.3 0.00 0.00 0.00 46 1011.6
20260503034007 13 135 8.0 14.5 0.00 0.00 0.00 46 1011.5